Weather History for KMCF - November, 2012

Change the Weather History Date:

Tuesday, November 6, 2012

  Actual Average Record
Temperature  
Mean Temperature 68 °F -  
Max Temperature 77 °F 78 °F 87 °F (1996)
Min Temperature 59 °F 61 °F 44 °F (2010)
Cooling Degree Days 3    
Growing Degree Days 18 (Base 50)    
Moisture  
Dew Point 62 °F    
Average Humidity 89    
Maximum Humidity 100    
Minimum Humidity 69    
Precipitation  
Precipitation 0.11 in - - ()
Sea Level Pressure  
Sea Level Pressure 29.91 in    
Wind  
Wind Speed 4 mph (NNE)    
Max Wind Speed 9 mph    
Max Gust Speed 17 mph    
Visibility 9 miles    
Events Rain    
Averages and records for this station are not official NWS values.
T = Trace of Precipitation, MM = Missing Value Source: NWS Daily Summary

Daily Weather History Graph

Daily Weather History Graph

Search for Another Location

Airport or City:

Trip Planner

Search our weather history database for the weather conditions in past years. The results will help you decide how hot, cold, wet, or windy it might be!

Date:

Astronomy

Nov. 06, 2012 Rise Set
Actual Time 6:44 AM EST 5:42 PM EST
Civil Twilight 6:20 AM EST 6:06 PM EST
Nautical Twilight 5:52 AM EST 6:34 PM EST
Astronomical Twilight 5:25 AM EST 7:02 PM EST
Moon No Moon Rise 12:40 PM EST (11/6)
Length of Visible Light 11h 45m
Length of Day
10h 57m
Waning Gibbous, 53% of the Moon is Illuminated
Nov 6
Waning Gibbous
Nov 6
Last Quarter
Nov 13
New
Nov 20
First Quarter
Nov 28
Full

Hourly Weather History & Observations

Time (EST) Temp. Dew Point Humidity Pressure Visibility Wind Dir Wind Speed Gust Speed Precip Events Conditions
12:55 AM 59.2 °F 57.9 °F 96% 29.95 in 10.0 mi ENE 9.2 mph - N/A   Clear
1:55 AM 59.7 °F 59.2 °F 98% 29.93 in 10.0 mi East 4.6 mph - N/A   Clear
2:55 AM 59.0 °F 58.6 °F 99% 29.91 in 10.0 mi ESE 4.6 mph - N/A   Clear
3:48 AM 59.0 °F 59.0 °F 100% 29.92 in 8.0 mi Calm Calm - N/A   Mostly Cloudy
3:51 AM 59.0 °F 59.0 °F 100% 29.92 in 8.0 mi Calm Calm - N/A   Overcast
3:55 AM 59.0 °F 58.8 °F 99% 29.92 in 9.0 mi Calm Calm - N/A   Overcast
4:55 AM 62.8 °F 62.4 °F 99% 29.93 in 10.0 mi Calm Calm - N/A   Partly Cloudy
5:55 AM 60.3 °F 59.9 °F 99% 29.91 in 10.0 mi Calm Calm - N/A   Mostly Cloudy
6:55 AM 63.7 °F 63.7 °F 100% 29.92 in 10.0 mi Calm Calm - N/A   Mostly Cloudy
7:30 AM 62.6 °F 62.6 °F 100% 29.92 in 10.0 mi Calm Calm - N/A Rain Light Rain
7:55 AM 63.3 °F 63.3 °F 100% 29.94 in 3.0 mi Calm Calm - 0.03 in Rain Light Rain
8:42 AM 64.4 °F 64.4 °F 100% 29.95 in 2.5 mi Calm Calm - N/A Rain Light Rain
8:51 AM 64.4 °F 64.4 °F 100% 29.96 in 3.0 mi Calm Calm - N/A Rain Light Rain
8:55 AM 64.2 °F 64.2 °F 100% 29.96 in 5.0 mi Calm Calm - 0.07 in Rain Light Rain
9:33 AM 64.4 °F 64.4 °F 100% 29.94 in 10.0 mi SSE 5.8 mph - N/A   Scattered Clouds
9:55 AM 66.2 °F 65.7 °F 98% 29.95 in 10.0 mi SE 3.5 mph - 0.01 in   Partly Cloudy
10:55 AM 69.1 °F 65.1 °F 87% 29.94 in 10.0 mi South 4.6 mph - N/A   Scattered Clouds
11:55 AM 73.0 °F 65.7 °F 78% 29.91 in 10.0 mi WSW 5.8 mph - N/A   Partly Cloudy
12:55 PM 74.5 °F 66.4 °F 76% 29.87 in 10.0 mi WNW 8.1 mph - N/A   Scattered Clouds
1:55 PM 71.4 °F 67.3 °F 87% 29.86 in 10.0 mi West 8.1 mph - N/A   Overcast
2:55 PM 75.7 °F 68.4 °F 78% 29.85 in 10.0 mi NNW 6.9 mph - N/A   Clear
3:55 PM 77.5 °F 66.6 °F 69% 29.85 in 10.0 mi Variable 4.6 mph - N/A   Clear
4:55 PM 74.3 °F 63.7 °F 69% 29.86 in 10.0 mi North 8.1 mph - N/A   Clear
5:55 PM 69.8 °F 63.5 °F 80% 29.86 in 10.0 mi North 4.6 mph - N/A   Clear
6:55 PM 68.2 °F 64.2 °F 87% 29.87 in 10.0 mi NNW 3.5 mph - N/A   Clear
7:55 PM 67.5 °F 59.7 °F 76% 29.91 in 10.0 mi NNE 8.1 mph 17.3 mph N/A   Clear
8:55 PM 67.1 °F 56.7 °F 69% 29.92 in 10.0 mi North 9.2 mph - N/A   Clear
9:55 PM 65.1 °F 57.4 °F 76% 29.92 in 10.0 mi NNE 5.8 mph - N/A   Partly Cloudy
10:55 PM 64.8 °F 57.2 °F 76% 29.92 in 10.0 mi Variable 4.6 mph - N/A   Partly Cloudy
11:55 PM 63.7 °F 56.1 °F 76% 29.90 in 10.0 mi Variable 5.8 mph - N/A   Clear